Location: Antichan
(42.9728°N, 0.6667°E)
Time: 10:16:17
(UTC+00:00)

Cosmos 2016 Rocket - Pass Details

Date: 15 August 2020
Orbit: 946 x 1001 km, 83.0° (Epoch: 18 September)

Event Time Altitude Azimuth Distance (km) Brightness Sun altitude
Exits shadow 22:02:27 63° 190° (S) 1,110 4.0 -27.1°
Maximum altitude 22:03:36 88° 273° (W) 1,006 3.9 -27.2°
Drops below altitude 10° 22:10:02 10° 7° (N) 2,782 7.0 -27.8°
Sets 22:12:35 0° 8° (N) 3,735 7.8 -28.1°
